Theta_e
314 314 314 315 315 318 322 322 326 329 330 328 331 327 322 322 320 322 322 322 323 320 319 319 320 319 320 320 321 321 320 321 320 321 326 327 319 320 320 319 320 319 320 319 318 318 320 323 325 327 327 329 328 328 328 327 327 328 326 322 320 320 320 320 321 321 321 320 321 323 326 328 330 332 332 331 330 329 329 326 326 328 329 328 329 332 333 334 333 334 334 332 332 333 332 330 328
314 314 313 315 319 323 322 322 327 330 331 327 326 324 320 324 322 322 322 322 323 320 319 319 320 320 320 320 319 320 321 320 320 320 323 322 320 322 319 319 319 319 321 319 319 318 319 321 323 325 327 328 328 328 328 327 327 327 325 323 322 320 321 321 321 321 321 321 323 326 329 330 331 332 332 332 329 328 330 328 327 328 330 329 330 332 333 333 332 333 332 332 332 333 334 333 331
313 314 313 316 322 324 323 325 329 329 329 323 321 324 320 322 321 320 321 320 320 319 320 319 320 321 320 321 320 321 322 321 320 321 321 321 323 322 318 319 319 319 320 320 320 318 319 320 321 323 325 328 329 328 328 327 327 327 326 324 323 322 321 321 321 322 321 323 325 329 332 332 332 333 332 330 327 328 329 328 328 328 329 329 330 332 332 331 328 329 331 333 334 334 334 334 334
313 314 314 318 323 325 327 328 332 327 324 323 319 322 321 321 321 320 320 319 320 320 320 320 320 321 321 321 320 321 321 321 321 321 321 321 321 319 318 319 318 319 319 321 320 319 319 319 321 322 323 326 327 328 328 327 327 327 327 325 324 322 322 322 323 322 321 322 325 330 333 333 333 333 332 328 326 327 327 327 327 327 327 326 326 327 326 324 320 320 323 327 331 332 331 331 331
313 314 313 319 324 325 328 326 330 324 321 326 319 318 320 320 322 320 319 319 320 320 320 320 321 321 320 322 321 321 321 321 321 321 321 319 318 317 317 317 318 317 318 320 320 320 319 319 320 321 322 323 325 326 326 326 326 327 327 326 325 323 323 324 323 323 322 321 324 330 333 333 334 333 331 327 326 327 327 327 326 324 323 322 321 321 320 319 318 316 315 316 320 323 324 324 324
315 317 316 319 322 321 324 325 328 326 324 327 320 319 319 318 320 319 319 320 320 321 320 320 320 321 320 321 321 320 321 322 321 321 319 318 317 317 317 316 317 316 317 319 321 320 319 319 320 321 322 323 323 324 324 325 325 326 327 326 326 325 325 325 324 323 322 321 323 329 332 334 335 334 330 327 327 326 326 328 326 324 323 322 321 320 317 316 315 313 312 311 312 314 315 315 316
321 323 321 321 322 320 324 324 327 327 326 325 319 320 319 318 320 319 320 320 320 321 320 320 320 320 321 320 321 321 321 321 320 319 318 317 317 317 317 317 316 316 316 318 320 321 320 319 319 320 322 323 324 324 324 323 324 325 326 327 327 326 326 326 325 324 323 324 325 327 332 334 335 334 331 326 326 325 326 327 326 325 324 324 323 322 320 317 314 311 310 311 311 311 311 311 312
322 322 321 325 327 324 325 325 328 327 324 321 319 319 318 318 319 320 320 318 320 321 320 321 320 320 322 320 320 321 321 321 319 318 318 317 317 317 317 317 317 316 315 317 319 320 320 319 319 319 321 323 324 324 324 323 323 324 325 326 327 327 326 326 326 325 325 328 328 327 331 333 334 334 331 326 325 325 325 325 324 323 322 322 323 322 322 319 315 311 310 310 310 310 311 311 310
321 321 320 325 329 327 329 328 329 327 323 320 318 318 318 319 319 320 320 319 319 320 321 320 320 321 321 319 320 320 321 321 319 318 318 317 317 316 317 317 317 316 315 316 317 319 320 320 319 318 319 321 323 323 324 324 324 324 325 326 326 326 326 325 325 326 326 329 329 328 330 332 334 333 330 326 325 323 322 322 320 318 317 318 318 317 316 314 312 310 309 309 309 309 309 310 310
321 321 320 327 330 326 329 329 328 327 322 319 318 319 319 319 319 319 320 320 319 319 320 320 320 320 320 319 320 320 321 321 320 319 318 317 317 317 317 316 316 317 316 316 316 318 320 321 320 319 318 319 320 322 323 324 324 324 324 325 326 326 326 325 325 325 326 328 328 329 330 331 332 330 327 325 323 321 319 319 316 312 312 312 311 310 309 309 309 308 308 308 308 308 308 308 308
324 321 319 326 330 324 327 327 325 327 323 319 318 318 319 319 318 319 319 319 319 318 319 320 320 319 319 319 319 320 321 322 320 319 318 317 317 317 317 316 317 316 316 316 316 316 318 320 320 320 319 318 318 319 321 322 323 324 324 325 325 325 325 325 325 325 326 327 327 328 330 330 330 328 325 324 322 319 317 317 314 309 308 309 308 308 307 307 308 307 308 308 307 307 306 306 305
324 325 323 324 327 324 326 324 324 328 327 322 320 318 318 319 318 319 319 317 318 317 318 319 319 319 318 318 319 320 321 323 321 319 319 318 317 317 317 317 316 316 316 316 316 316 317 319 320 320 320 319 318 317 318 320 322 323 324 324 324 324 324 325 325 325 326 326 326 326 326 327 327 326 325 324 321 318 316 314 310 308 308 308 307 307 307 307 307 306 306 306 305 304 304 304 303
322 325 326 326 328 324 323 324 326 330 329 322 318 318 317 317 318 319 318 317 317 317 319 319 319 319 319 318 318 318 320 321 321 320 319 318 317 317 317 317 317 316 316 316 316 316 317 318 319 320 320 320 319 318 317 317 319 321 322 323 323 323 323 325 326 326 326 326 325 325 324 324 323 324 323 321 318 316 314 311 308 307 307 307 306 306 305 305 305 305 305 304 304 303 303 303 303
322 323 324 327 329 325 323 325 327 325 325 322 317 318 318 317 318 318 318 318 317 317 319 319 318 318 318 318 318 320 319 319 320 320 319 317 317 317 317 317 317 316 316 316 316 316 316 316 318 319 320 320 320 319 318 316 317 318 320 321 322 322 323 325 326 326 326 326 326 325 325 325 324 323 321 318 316 315 313 311 308 307 306 305 305 304 304 304 304 304 304 304 303 303 303 303 304
320 321 324 326 328 328 325 326 327 323 323 324 318 318 318 318 318 317 318 318 318 317 318 317 317 317 317 318 319 320 319 319 319 319 319 317 317 318 317 316 316 316 316 316 316 316 316 316 317 318 319 320 320 320 319 317 316 316 317 319 320 321 323 324 325 326 327 326 326 326 327 327 326 323 320 318 316 315 313 312 309 306 305 304 304 303 304 304 304 304 304 304 303 303 304 304 304
318 321 325 326 327 327 326 325 326 324 323 321 317 318 318 317 318 317 318 318 318 318 317 318 317 317 317 317 317 317 317 317 318 318 318 317 317 317 316 316 316 316 316 316 316 316 316 316 316 317 318 319 320 320 320 319 317 316 316 317 318 319 321 322 324 327 327 327 327 327 327 326 325 322 320 317 316 314 312 310 308 305 304 304 303 303 303 304 304 304 304 304 304 304 304 304 305
318 322 326 326 328 328 328 325 320 321 322 318 316 318 316 316 317 317 318 318 318 318 317 317 317 317 317 316 316 316 317 317 317 317 317 317 317 316 316 316 316 315 315 315 316 316 316 316 316 316 316 317 318 320 320 320 319 318 317 317 317 318 319 320 322 325 326 325 326 326 325 324 323 322 319 316 315 313 310 308 307 305 304 303 303 303 303 304 304 304 304 305 304 305 305 305 306
319 327 327 325 329 327 327 323 317 319 319 317 317 317 316 316 316 316 317 317 317 317 317 317 316 317 317 316 316 316 317 317 318 317 318 318 317 317 317 317 316 316 315 315 315 315 316 315 316 315 316 316 316 318 319 320 320 320 318 317 317 317 318 318 318 320 321 322 323 324 323 322 322 321 318 315 314 312 309 308 307 305 303 303 303 303 304 304 304 305 305 306 305 305 306 306 307
321 327 326 328 333 325 321 319 316 317 317 318 317 317 317 317 316 316 316 316 316 316 316 317 317 317 316 316 316 316 317 317 317 317 318 318 318 318 317 317 317 316 315 315 315 315 315 315 315 315 316 316 316 316 317 318 319 320 319 318 317 316 317 317 317 316 316 318 320 321 321 321 321 320 319 316 314 312 310 307 306 305 303 303 303 303 304 304 305 306 306 306 306 306 307 307 307
321 322 325 332 329 320 318 318 317 317 317 317 317 317 317 317 317 316 316 315 316 316 316 317 317 317 316 316 316 316 317 317 317 318 318 318 318 318 317 317 316 316 315 314 315 315 315 315 315 315 315 315 315 316 316 317 318 319 319 319 318 317 316 316 316 315 314 315 316 318 319 319 319 319 319 316 313 312 309 307 306 304 304 304 304 304 304 304 305 306 307 307 307 307 307 307 307
321 321 326 328 320 318 320 319 319 317 317 318 317 318 317 317 317 316 316 316 316 316 316 316 316 316 315 316 316 317 317 317 317 317 317 317 317 317 317 317 316 314 314 314 314 314 314 315 315 315 315 315 315 316 315 316 316 317 319 319 319 318 317 316 316 315 314 313 314 315 316 317 318 318 317 314 312 310 308 308 307 304 304 304 304 304 304 305 306 307 307 307 307 307 307 307 307
320 320 322 321 318 319 320 319 318 317 317 318 317 317 317 317 317 316 316 316 316 315 315 316 316 316 316 316 316 317 317 317 318 317 317 317 317 317 316 316 315 314 314 314 314 314 314 314 315 315 315 315 315 315 315 316 316 316 317 318 318 318 317 316 316 315 314 313 313 313 314 315 316 316 315 313 311 310 308 308 307 305 304 304 304 304 305 306 307 307 307 307 307 307 307 307 307
321 321 318 318 318 318 318 318 318 317 316 317 317 317 317 316 316 316 316 316 316 315 315 315 315 316 316 316 316 316 316 316 317 317 317 317 317 316 316 316 315 315 314 314 314 314 314 314 314 315 315 315 315 315 315 316 316 316 317 317 318 318 318 318 316 315 315 314 313 313 313 313 314 314 314 313 312 310 308 308 307 305 304 304 304 304 305 306 307 307 307 307 307 307 307 306 306
320 321 319 319 319 317 318 318 317 317 316 317 317 317 316 316 317 316 316 316 316 316 316 316 316 316 316 316 316 316 316 316 317 317 317 316 316 316 316 316 315 315 315 315 315 314 314 314 314 314 315 315 315 315 315 316 316 316 317 317 318 318 318 318 317 317 316 315 314 313 312 312 312 313 313 312 312 311 309 308 307 306 304 305 304 304 305 306 307 307 307 307 307 307 307 306 306
317 319 318 318 318 317 317 316 316 316 316 316 316 316 316 316 317 316 316 316 316 316 316 316 316 316 316 316 316 317 316 316 316 316 316 316 316 316 316 316 315 315 315 315 315 315 315 315 314 314 314 314 314 315 315 315 316 316 317 317 317 317 318 318 318 318 318 316 315 314 314 313 313 312 312 312 312 312 310 309 308 306 305 304 305 305 305 306 307 307 307 307 307 307 306 306 306
316 316 316 315 315 315 316 315 316 316 315 315 314 314 315 315 316 316 316 316 317 317 316 316 316 316 317 316 316 316 316 316 316 316 316 316 316 316 316 316 315 315 315 316 315 316 315 315 315 315 314 314 315 315 315 315 315 316 317 317 317 317 318 318 318 319 319 318 317 316 315 314 313 312 312 312 312 312 311 309 308 307 305 305 305 305 305 306 307 307 307 306 307 307 306 306 306
315 314 314 314 314 315 315 315 315 315 314 314 314 314 314 314 316 316 316 317 317 317 316 316 316 316 316 316 316 316 316 316 316 316 316 316 315 316 316 316 316 316 315 316 316 316 316 316 316 315 315 315 316 316 315 315 315 315 316 317 318 318 318 319 319 319 319 319 318 317 316 315 315 314 313 312 312 312 312 311 309 308 306 306 305 305 305 306 306 306 306 306 306 306 306 305 305
314 314 314 314 314 314 314 314 314 314 313 314 314 313 313 313 315 316 316 317 317 316 316 316 316 317 316 316 316 316 316 316 316 316 315 315 316 316 316 316 316 316 317 317 317 317 316 316 316 316 316 316 316 316 317 317 316 316 317 317 318 319 320 320 320 320 320 319 319 319 318 317 316 316 314 313 313 312 312 312 310 308 307 306 306 304 304 305 306 306 306 305 306 306 305 305 305
314 314 315 315 314 314 314 313 314 313 313 314 314 314 315 315 316 316 316 317 316 316 316 316 316 316 316 316 316 316 316 315 315 315 315 315 316 316 316 316 316 316 317 317 317 316 316 316 316 316 317 317 317 317 317 318 318 318 319 319 319 321 322 322 322 322 321 321 320 320 319 319 318 318 316 315 314 313 312 312 311 310 308 307 306 304 304 304 305 306 306 305 306 306 305 305 305
315 314 314 316 315 316 315 313 315 314 313 314 314 316 319 318 315 316 317 317 316 316 316 317 317 316 316 316 316 315 315 315 315 314 315 315 315 315 315 315 315 315 316 316 315 315 314 315 316 316 317 317 317 318 318 318 319 320 320 321 322 323 323 324 324 324 324 323 323 322 321 320 320 319 318 317 316 315 313 312 312 311 309 307 306 305 304 304 305 306 306 306 306 306 305 305 305
314 313 315 316 316 319 318 313 315 315 313 314 314 317 320 319 316 316 318 317 316 317 317 318 318 317 316 315 315 315 315 314 314 314 314 314 314 314 314 314 314 314 314 314 314 314 313 315 316 316 316 317 317 318 318 318 319 320 321 322 323 324 324 325 325 325 325 325 325 324 323 322 322 321 320 320 319 317 316 314 313 312 310 308 307 306 304 303 304 304 306 306 306 306 306 305 305
315 314 320 320 317 320 319 314 314 315 314 313 314 318 319 317 315 316 318 318 317 317 317 318 316 316 315 314 315 314 314 314 314 313 313 313 313 313 313 313 313 313 313 313 313 313 313 315 316 316 316 316 316 316 317 318 320 321 321 322 323 324 325 325 326 326 325 325 325 325 324 324 323 322 322 321 320 319 318 316 314 313 311 309 308 307 306 304 303 303 304 305 305 305 306 306 305
319 315 319 321 318 318 318 317 315 313 315 313 313 317 318 317 315 316 318 317 317 316 316 316 314 315 314 314 314 314 313 313 313 312 312 312 312 312 312 311 312 312 313 313 313 312 313 315 316 316 316 316 316 316 317 318 319 320 321 321 322 323 324 325 325 325 325 325 325 325 325 324 324 323 322 322 321 320 319 318 316 314 313 310 308 307 307 305 303 302 303 304 305 305 305 305 305
322 319 318 320 319 317 319 322 317 313 316 315 314 314 315 316 315 315 317 316 316 315 314 315 314 314 314 313 313 312 312 312 311 311 311 311 311 312 311 311 311 311 312 312 312 312 313 314 314 314 315 315 314 315 316 318 319 320 321 321 321 322 322 323 324 324 324 324 324 324 324 324 323 323 322 322 321 320 320 319 317 316 314 312 309 307 306 305 304 302 302 302 304 305 305 305 305
322 322 320 321 320 318 319 321 319 317 318 318 318 316 315 315 314 313 316 316 315 314 314 315 315 314 313 312 310 309 309 309 308 309 309 310 311 311 310 310 310 310 311 311 311 311 311 312 312 312 311 311 311 312 314 317 318 319 320 321 321 321 322 322 323 323 323 323 323 323 323 323 322 322 322 321 321 320 320 319 318 317 316 314 312 309 306 305 304 303 302 301 302 303 304 304 305
320 320 320 320 319 319 319 319 318 318 318 319 319 319 317 317 317 314 315 316 315 314 314 314 314 313 311 310 308 308 307 307 307 308 309 310 310 310 309 310 309 309 310 310 310 310 310 310 310 309 309 309 309 310 312 313 314 316 318 319 320 321 321 321 322 322 322 322 322 322 322 321 321 321 321 320 320 320 319 319 318 317 316 315 314 311 308 305 304 304 303 302 301 302 303 303 303
316 317 318 319 319 320 319 319 319 317 317 321 320 319 318 318 319 316 315 316 315 314 314 313 312 311 310 308 307 307 306 306 307 308 309 309 309 309 309 309 309 309 309 309 309 309 309 309 309 309 308 308 309 309 310 310 311 312 314 315 317 318 318 319 319 320 320 320 320 320 320 320 320 320 319 319 319 319 319 318 318 317 316 316 315 313 310 307 305 304 303 301 301 301 301 302 302
315 317 319 320 322 321 319 318 318 315 316 322 321 318 318 318 318 316 315 315 314 313 313 311 311 310 308 307 306 306 306 306 308 308 309 309 309 309 309 309 309 309 309 309 309 309 309 309 309 309 308 308 309 309 310 309 310 310 311 312 313 314 314 315 316 316 317 317 317 317 318 318 318 318 318 318 318 318 318 317 317 316 316 315 315 313 311 308 305 304 303 301 300 300 300 301 302
318 320 320 321 322 321 321 321 318 315 316 322 322 318 318 318 317 315 314 314 312 312 312 310 310 309 307 306 306 306 306 307 308 308 308 309 309 309 309 309 308 308 308 308 308 308 308 308 308 309 308 308 308 308 309 309 309 310 310 312 313 314 314 314 314 313 313 313 313 314 314 314 315 315 316 316 316 316 316 316 316 316 315 315 314 313 311 309 306 304 303 302 300 300 299 299 300
321 321 320 322 321 319 323 324 320 317 316 319 320 318 319 317 317 316 313 312 311 310 310 309 308 307 306 306 306 306 306 306 307 307 308 308 308 308 308 308 308 308 308 308 308 307 307 307 308 308 308 308 308 308 308 308 308 308 308 309 311 312 312 313 312 312 311 310 309 310 310 311 311 312 313 313 314 314 314 314 314 314 314 314 313 313 312 310 308 306 303 302 301 300 299 299 299
323 323 321 322 321 320 321 322 321 320 321 322 318 321 326 321 317 317 312 310 310 309 309 308 307 306 305 305 305 305 305 306 306 307 307 307 307 307 307 307 307 307 307 307 307 306 306 307 307 307 308 308 308 308 308 307 307 307 307 307 308 308 308 309 309 309 308 308 308 307 307 307 307 308 308 309 309 310 310 311 312 312 312 313 313 312 312 311 309 307 305 303 301 300 299 299 299
324 326 324 321 322 321 322 323 323 322 324 324 317 323 332 325 320 320 314 310 310 309 308 307 306 305 305 304 304 303 304 304 305 305 306 306 306 306 307 307 307 307 306 306 306 306 306 306 306 307 307 307 308 308 307 307 307 307 307 307 307 306 306 306 306 306 307 307 307 306 306 306 305 305 305 305 305 306 306 307 309 310 310 311 311 311 311 310 309 308 306 303 302 300 299 299 298
322 325 324 324 322 321 323 322 322 323 324 321 317 321 326 322 320 322 315 310 310 308 307 306 305 305 304 303 303 303 303 304 304 304 305 305 306 306 306 306 306 306 305 305 305 305 305 305 306 306 306 307 307 307 307 307 306 306 306 306 306 306 306 305 305 305 305 306 306 305 305 305 304 304 304 303 303 303 304 304 305 306 308 309 309 310 310 309 309 308 306 304 302 301 300 299 298
324 323 322 324 321 320 321 318 319 323 322 319 318 318 319 319 320 318 314 310 310 308 307 306 305 304 303 302 302 302 303 304 304 304 304 304 304 305 305 305 305 305 305 305 305 304 305 305 305 306 306 306 306 306 307 307 306 306 306 306 306 306 306 306 305 305 305 305 305 305 305 304 304 304 303 303 303 302 302 302 302 303 304 305 307 308 308 308 308 307 306 304 303 301 300 299 298
326 322 318 320 318 318 319 316 319 321 318 320 321 317 317 323 324 316 313 312 310 308 307 305 304 303 303 302 302 301 301 302 304 304 304 304 304 304 304 304 304 305 305 304 304 304 304 304 305 305 305 305 305 305 306 306 305 305 305 305 305 305 305 305 305 305 305 305 304 304 304 304 304 303 303 303 302 302 302 302 301 301 302 302 303 305 306 306 307 306 305 304 303 302 300 299 298
320 317 318 321 319 318 317 316 318 318 317 322 323 319 317 326 328 317 313 315 311 308 307 304 304 303 302 302 301 301 301 301 302 302 303 304 304 304 304 304 304 304 304 304 304 304 304 304 304 304 305 305 305 305 305 305 305 304 304 304 303 303 303 303 304 304 304 305 304 304 304 304 304 303 303 302 302 302 301 301 301 301 301 301 301 302 303 304 305 305 305 304 303 302 301 300 298
315 316 320 323 323 321 318 319 320 317 321 325 323 320 317 323 328 317 313 315 311 307 306 304 303 302 301 301 300 300 300 300 301 302 302 303 304 304 304 304 304 304 304 303 303 303 303 304 304 304 304 304 304 304 304 304 304 303 303 302 302 302 302 302 302 303 303 304 304 304 304 303 303 303 303 302 302 301 301 301 301 301 301 300 300 300 300 301 302 303 304 304 303 302 301 300 299
315 321 322 321 324 324 319 321 322 319 325 330 325 320 316 321 327 317 311 313 309 306 305 303 302 301 301 300 300 300 300 301 302 303 303 303 303 303 303 303 303 303 303 303 302 302 303 303 303 304 304 304 304 303 303 302 302 301 301 301 301 300 300 301 301 301 302 303 303 303 304 303 303 303 302 302 302 301 301 301 301 300 300 300 300 300 300 300 300 300 301 302 302 302 301 300 299
318 321 318 317 322 324 322 322 322 321 325 328 323 319 318 321 320 312 309 309 308 306 304 303 302 301 300 300 300 300 301 302 303 303 303 303 303 302 302 302 302 302 302 301 301 301 302 302 302 302 302 302 302 302 301 301 300 300 299 299 299 299 300 300 300 300 301 301 301 302 303 303 303 303 303 302 302 302 301 301 301 300 300 300 299 299 299 299 299 299 299 300 301 301 301 300 299
316 317 319 320 321 321 322 322 318 318 322 323 318 315 320 322 314 307 306 305 305 304 303 302 302 301 300 299 300 300 301 302 302 302 302 302 301 301 301 301 301 301 301 301 301 301 301 301 300 300 300 300 300 300 299 299 299 298 298 298 298 298 298 298 299 299 299 300 300 300 301 301 301 302 302 302 302 302 301 301 301 301 300 299 299 299 298 299 299 299 299 299 299 300 300 300 300
314 319 321 322 325 322 320 320 317 318 323 323 318 315 323 325 313 305 304 302 302 303 302 302 301 300 300 299 299 300 300 301 301 301 301 300 300 300 300 301 300 300 300 300 300 299 299 298 298 298 298 298 298 297 297 297 297 297 297 297 297 297 297 297 297 297 298 298 298 298 299 299 299 300 300 301 301 302 301 301 301 301 301 300 299 298 298 298 298 298 298 298 298 298 299 299 299
316 318 318 320 326 324 320 320 319 319 322 322 321 320 319 315 308 304 303 302 302 302 301 301 300 300 300 299 299 299 299 299 299 299 299 299 299 299 299 299 298 298 298 297 296 296 295 295 295 295 295 295 295 295 295 295 295 295 295 296 296 296 296 296 296 296 296 296 296 296 297 297 297 298 298 299 299 300 301 301 301 301 301 301 300 299 299 298 298 298 298 298 298 298 298 298 298
319 317 321 324 323 320 320 321 319 317 318 319 320 320 313 309 307 305 303 303 302 302 301 301 300 300 299 299 299 298 298 298 298 298 299 298 298 298 298 297 296 296 295 294 293 293 293 293 293 293 292 292 293 293 293 293 293 293 293 294 294 294 294 295 295 295 295 295 295 295 295 295 295 295 296 296 297 297 298 299 300 300 301 301 301 300 300 299 299 298 298 298 297 297 297 297 297
320 319 322 322 318 318 320 320 319 317 317 317 316 316 314 314 313 306 303 305 304 302 302 300 300 300 299 299 298 298 298 298 298 299 299 298 298 297 296 295 294 294 293 292 291 291 291 291 291 291 291 291 291 291 291 291 291 291 291 291 292 292 292 293 293 293 293 294 294 294 294 293 293 293 293 293 294 295 295 296 297 298 299 300 300 301 301 300 300 299 299 298 297 297 297 297 297
316 317 318 317 317 321 320 318 320 318 316 317 319 318 316 317 314 306 304 305 304 303 303 301 300 300 299 299 299 298 298 298 299 298 297 297 296 295 294 293 292 292 291 291 291 290 291 290 290 290 290 290 290 290 290 290 290 290 290 290 290 290 290 290 291 291 291 291 292 292 292 292 292 291 291 291 291 291 292 292 293 294 295 296 298 299 300 300 300 300 300 299 298 297 297 296 296
312 314 316 317 318 319 318 318 321 319 316 317 318 318 318 317 313 307 305 305 304 303 303 302 301 300 300 300 299 298 298 298 298 297 296 295 294 293 292 292 292 291 291 291 291 290 291 290 290 290 290 289 289 289 289 289 289 289 289 289 289 289 289 289 289 289 289 289 289 290 290 290 290 290 290 290 289 289 289 289 290 290 291 292 294 295 296 298 299 300 300 300 299 298 297 297 296
315 316 316 316 317 318 316 316 318 319 317 317 316 316 318 315 310 306 305 304 304 303 303 303 301 300 301 300 299 299 298 298 298 296 295 293 292 292 291 291 291 291 291 291 291 291 290 290 290 290 290 290 290 290 290 290 289 289 289 289 289 289 289 289 289 289 289 289 289 289 289 289 289 289 289 289 289 288 288 288 288 288 288 289 290 291 292 293 295 297 298 299 300 299 299 298 297
318 319 318 317 317 316 316 316 317 317 316 316 315 316 318 313 308 307 305 304 303 302 302 302 301 301 300 299 299 299 298 297 296 295 293 292 291 291 291 291 291 291 291 291 290 290 290 290 290 290 290 290 290 290 290 290 290 289 289 289 289 289 289 289 289 289 289 289 289 289 289 289 289 288 288 288 288 288 288 288 288 288 288 288 288 288 289 289 290 291 293 295 297 298 299 299 298
Wind_Speed
10 9 8 7 6 4 4 6 2 2 3 0 4 0 2 2 2 2 3 2 2 1 2 1 2 3 3 2 3 4 6 6 5 3 2 4 2 0 0 1 2 1 2 2 5 10 13 14 16 17 16 16 16 15 14 14 14 15 15 15 14 13 12 11 9 8 6 5 4 4 4 4 4 5 7 8 8 7 7 7 8 8 7 7 7 7 7 7 6 5 5 3 4 4 3 2 2
9 7 7 5 4 4 4 4 2 2 4 2 4 1 2 3 4 3 4 3 3 2 2 3 2 3 3 4 5 4 6 6 6 4 3 4 2 1 0 2 2 1 2 3 5 9 13 14 15 16 16 16 16 16 15 14 14 15 16 16 15 14 13 11 10 8 7 6 5 5 5 6 6 7 8 9 9 9 9 8 8 8 7 7 7 7 7 7 6 5 5 5 5 5 4 4 4
7 6 6 3 3 5 5 3 3 2 4 2 4 3 1 4 3 4 6 5 4 1 3 2 2 2 1 2 3 2 3 1 3 4 3 3 1 0 2 2 2 2 3 4 6 8 12 14 15 16 16 16 17 16 15 15 15 16 17 16 15 14 13 11 10 8 8 7 7 7 8 8 8 9 10 10 8 8 9 8 8 8 8 8 7 7 8 7 5 4 5 5 5 6 6 5 6
4 3 4 3 4 5 3 3 2 3 1 1 1 4 2 4 2 4 5 3 2 0 1 1 1 2 1 2 3 3 4 1 3 2 0 0 2 2 2 2 4 4 4 5 6 8 11 14 15 16 16 16 17 17 16 16 15 16 17 16 16 15 13 12 11 10 9 9 9 10 9 10 10 11 12 10 7 6 7 7 7 7 7 8 9 8 8 8 7 6 6 7 7 6 6 6 6
2 1 2 3 4 2 1 2 0 3 2 3 2 3 1 4 2 1 2 1 3 2 0 1 1 2 3 5 4 2 2 1 2 2 3 3 4 3 3 3 5 5 4 5 6 8 10 13 15 16 16 17 17 17 16 16 15 16 17 17 16 15 14 13 12 11 11 11 11 12 11 11 12 13 14 11 7 6 5 6 7 7 6 7 8 9 10 10 10 9 9 9 9 9 9 9 8
0 3 3 3 2 1 1 1 1 1 5 4 3 4 1 4 3 3 6 3 4 1 1 2 1 2 4 6 5 5 3 3 3 4 5 5 3 4 5 5 5 5 5 6 7 8 9 12 15 16 17 17 17 18 17 16 15 16 17 17 16 15 14 14 13 12 12 12 12 13 13 13 13 13 14 12 8 6 5 7 7 7 8 9 9 11 12 12 13 12 11 10 10 11 11 11 11
2 4 4 3 1 1 3 1 3 3 5 5 5 3 2 4 6 5 5 3 3 1 1 2 1 1 3 4 4 7 7 8 6 5 5 3 2 3 5 5 6 6 6 7 8 8 9 12 14 16 17 18 18 18 18 17 16 16 16 17 17 16 15 14 13 12 12 12 13 14 14 14 14 14 14 12 9 7 7 8 9 10 10 11 11 13 14 14 14 14 12 10 11 12 12 12 12
5 4 3 2 2 2 2 2 4 4 4 3 5 3 4 5 6 3 3 1 2 2 3 4 2 0 2 3 4 6 7 9 7 4 5 3 2 3 4 5 6 6 7 7 9 9 10 11 14 16 17 18 19 19 19 18 17 16 16 17 17 17 16 15 14 13 13 13 14 15 15 15 15 16 15 12 10 10 9 10 11 13 13 13 14 15 15 14 15 14 13 11 12 12 12 12 13
5 3 2 2 2 2 2 3 4 3 4 3 1 5 8 7 5 3 2 4 3 2 3 6 4 1 2 4 7 9 8 9 7 5 5 4 3 4 5 5 6 6 6 9 9 10 10 11 13 15 17 18 19 19 19 19 18 17 17 18 18 18 17 16 16 15 14 14 14 15 15 16 16 17 16 14 13 12 11 12 13 15 16 16 17 17 16 15 15 14 12 11 11 11 11 11 12
5 2 1 2 2 3 4 3 3 3 5 3 3 7 9 7 4 2 2 4 4 2 3 6 6 4 4 6 8 9 8 9 8 6 5 6 4 6 6 6 7 6 6 9 10 9 10 11 13 15 16 17 19 20 20 20 19 18 17 18 18 18 18 17 17 16 15 15 14 14 16 17 17 18 17 15 14 13 13 13 14 15 15 16 15 15 14 14 14 13 10 9 10 9 9 9 9
4 2 1 2 3 2 3 4 4 5 6 3 4 6 7 7 4 2 3 5 7 3 3 6 4 4 4 5 8 8 9 11 10 7 6 7 6 6 8 8 8 7 6 8 9 10 10 11 13 14 16 17 19 20 20 21 20 19 19 19 19 19 19 18 18 17 16 15 15 15 17 18 18 19 18 16 14 14 13 13 14 13 12 13 13 12 12 12 12 10 9 8 8 7 7 7 7
3 2 2 2 0 2 3 4 6 6 6 3 2 3 6 6 3 1 4 4 6 7 4 5 1 3 2 3 6 9 10 12 12 9 8 9 7 6 9 10 9 7 7 7 8 10 10 12 13 14 16 17 19 20 21 21 21 20 20 20 19 19 19 19 19 18 17 17 17 17 18 18 19 19 18 18 16 15 14 12 12 12 11 11 11 11 11 10 10 9 8 8 7 7 7 7 7
2 2 4 1 2 2 3 4 5 5 6 2 1 2 4 3 2 1 4 5 7 8 3 4 1 3 4 6 10 14 13 12 12 10 10 10 9 9 10 11 10 8 8 8 8 9 10 12 13 14 15 17 19 20 21 21 21 21 21 20 20 19 19 19 20 19 18 18 19 18 19 19 19 19 19 19 18 16 13 10 12 12 11 11 11 10 10 10 9 9 8 8 7 7 7 7 7
3 3 3 1 2 2 2 3 3 2 3 4 2 3 2 2 1 2 4 5 9 7 3 4 7 6 6 8 9 10 8 8 10 10 11 10 11 12 12 12 11 9 9 10 9 9 10 11 13 15 16 17 18 20 21 21 22 22 22 21 21 20 19 20 20 20 20 20 20 20 20 20 20 20 20 20 19 17 14 11 12 13 12 11 11 10 11 10 9 9 9 8 7 7 7 7 7
3 4 3 1 3 4 2 3 3 2 4 5 3 4 1 3 3 4 6 5 9 9 9 9 7 4 4 4 6 7 8 9 9 11 12 12 13 15 16 14 11 11 11 12 12 12 11 11 13 15 16 17 18 20 21 22 22 23 23 23 22 21 21 21 21 21 21 21 21 21 21 21 21 21 21 20 19 18 15 13 13 13 12 12 11 11 11 11 10 10 9 8 8 8 8 8 8
2 2 4 1 2 2 2 3 1 2 4 5 3 4 0 4 5 4 6 7 10 12 14 13 10 10 10 12 15 16 17 17 14 15 15 16 17 17 18 16 14 13 12 13 14 14 13 13 13 14 16 18 19 20 21 22 23 23 24 24 23 22 22 22 22 21 21 21 22 22 22 22 22 22 21 21 20 18 16 13 14 14 13 12 12 12 12 11 11 10 10 9 8 8 8 8 8
1 2 4 1 2 2 3 3 1 0 5 4 2 2 0 3 7 5 5 7 13 15 18 19 17 18 19 21 22 21 22 22 20 19 19 19 19 18 18 18 17 16 15 14 15 16 16 15 15 15 16 17 19 21 22 23 23 24 25 25 25 24 24 24 23 23 22 22 22 23 22 22 23 23 22 21 20 19 16 14 15 15 14 13 13 13 13 12 11 11 11 10 9 9 9 9 8
2 3 3 2 3 3 4 3 3 2 4 5 5 4 3 3 7 9 5 8 14 16 20 25 23 22 22 23 23 23 24 24 24 23 22 20 18 18 19 20 20 19 17 16 16 17 18 18 17 16 16 17 19 21 23 24 24 24 25 26 26 26 26 25 25 25 24 23 23 23 23 23 23 23 22 22 21 20 17 15 15 16 15 15 14 14 14 13 13 12 12 11 10 10 9 9 9
4 2 2 4 5 5 6 6 8 6 4 9 9 7 5 4 9 12 6 9 13 12 19 25 27 28 24 21 19 18 17 18 21 22 23 22 20 21 21 22 22 21 20 17 15 16 18 19 19 18 18 18 19 20 22 23 24 25 25 26 27 26 27 26 26 26 26 25 25 25 24 24 23 23 23 22 22 21 19 18 16 16 17 16 15 15 15 14 13 13 12 11 11 10 10 10 10
7 5 2 6 7 6 13 14 14 14 11 8 8 7 8 10 13 12 8 12 12 10 16 20 25 31 27 20 17 18 18 15 16 18 20 21 21 22 22 23 23 21 19 17 15 15 16 18 19 19 18 19 20 21 21 23 24 25 25 26 27 27 27 27 27 27 27 27 26 26 26 25 24 23 23 23 22 22 21 19 18 18 18 18 17 16 16 15 14 14 12 12 11 10 11 10 10
6 7 4 7 6 5 13 16 18 20 14 9 11 10 11 14 14 12 11 10 8 13 21 22 26 32 31 25 22 23 24 20 17 17 19 20 21 22 23 23 21 18 17 16 16 15 15 15 17 18 19 20 21 22 22 22 23 24 26 26 27 27 27 28 28 28 28 28 28 28 27 26 26 25 24 23 23 23 22 21 20 19 20 20 18 18 17 16 15 14 13 12 11 11 11 11 11
4 7 11 11 7 5 12 16 17 18 15 13 12 9 11 14 13 14 12 8 12 21 26 26 29 33 32 29 27 26 26 24 22 21 21 21 22 22 22 21 17 15 15 16 16 15 15 14 15 16 19 21 21 22 23 23 24 24 25 26 27 27 27 28 29 29 29 29 30 29 29 28 28 27 26 24 23 24 23 22 21 20 21 21 20 19 19 18 16 14 14 13 12 12 12 12 12
6 6 12 16 15 9 13 18 20 20 16 12 10 12 14 13 14 16 14 17 27 33 32 31 31 32 32 31 30 29 27 25 24 23 22 21 21 22 21 19 17 15 16 17 16 16 15 14 14 15 17 19 21 22 23 24 25 25 26 26 27 26 26 27 28 28 28 29 30 30 30 30 30 29 27 26 25 24 24 23 22 22 22 22 21 20 20 19 17 16 15 15 14 13 13 13 12
9 6 8 15 16 13 16 19 20 19 14 14 14 16 16 10 11 14 17 27 35 33 30 31 30 28 28 29 27 25 24 22 22 21 22 22 21 20 19 19 18 17 18 19 19 18 17 15 14 15 15 17 19 21 23 25 26 26 26 27 28 27 27 28 27 26 27 28 29 30 30 31 31 30 29 27 26 25 24 23 24 23 23 24 22 22 22 20 19 18 17 17 16 15 15 14 13
7 5 5 7 10 12 16 18 20 21 20 22 17 17 19 16 15 15 23 33 32 27 26 25 24 22 21 22 22 20 20 19 19 20 21 22 22 20 19 18 18 18 19 20 20 20 19 17 16 16 15 14 17 19 22 24 26 27 28 29 29 28 28 28 27 26 27 27 28 29 29 31 31 31 30 29 27 26 24 24 24 25 25 25 24 23 23 22 20 19 19 18 17 17 16 15 15
3 5 6 6 9 13 17 19 23 26 27 25 14 15 23 21 15 15 26 29 25 25 25 24 22 21 18 18 20 20 20 19 19 22 22 22 21 21 19 17 17 17 18 19 19 19 19 20 20 19 17 15 15 17 20 22 24 27 28 29 29 29 29 29 28 28 28 27 27 27 27 29 30 31 31 30 29 27 25 24 25 25 26 25 25 24 23 22 21 20 20 20 19 18 17 17 16
6 9 10 12 13 17 20 20 29 30 25 25 13 12 24 20 6 9 24 25 24 28 28 27 24 23 21 19 20 20 20 21 23 25 22 21 19 18 16 15 16 16 16 17 17 17 18 20 21 20 19 18 17 17 18 20 22 24 26 28 29 30 30 30 30 29 29 28 27 26 26 27 27 29 30 30 29 28 26 25 24 26 26 26 25 24 24 23 22 21 21 20 19 18 18 18 18
9 11 10 14 15 19 22 20 29 25 15 22 15 11 21 12 3 15 27 25 25 29 29 28 24 23 23 20 19 18 20 23 24 21 16 13 11 9 10 10 12 13 13 14 14 14 15 18 19 20 19 19 19 19 18 20 21 23 25 28 29 30 30 31 31 31 30 29 29 28 27 26 26 26 27 27 27 28 27 25 24 26 27 26 25 24 24 24 24 22 22 22 21 19 20 20 19
11 9 5 11 10 12 21 20 25 18 8 16 10 4 12 5 10 23 26 25 25 26 26 24 21 20 18 17 19 17 17 17 14 10 5 3 2 4 6 6 8 10 10 10 9 11 12 14 16 17 18 19 19 19 19 19 21 23 25 27 28 30 31 31 31 31 31 30 30 29 29 28 27 26 26 25 26 26 27 26 25 25 26 26 25 25 25 25 25 24 24 24 23 22 22 22 21
10 6 1 6 6 6 17 16 16 12 6 12 10 2 8 8 17 24 21 23 20 17 19 21 22 22 19 21 19 12 9 7 5 5 4 2 2 3 4 3 5 7 8 8 8 9 9 10 11 13 15 16 17 17 18 18 19 21 24 26 28 29 30 31 31 31 31 30 30 31 30 30 29 28 27 26 26 27 27 28 27 25 26 26 26 26 26 26 26 26 26 26 25 24 24 24 23
5 4 0 2 2 5 13 11 7 5 3 12 14 3 7 8 16 20 17 18 17 18 23 27 28 25 24 22 11 10 14 14 11 9 6 4 2 1 3 4 6 7 8 8 8 8 6 6 7 9 10 12 13 14 15 16 17 19 22 25 27 28 29 30 30 30 31 31 32 32 32 31 30 30 29 29 28 28 28 28 28 26 26 27 27 26 26 26 27 27 27 28 27 26 26 26 25
2 2 3 2 4 4 11 13 8 4 2 8 10 3 6 6 15 18 15 18 21 23 28 29 26 25 23 13 7 12 14 15 12 10 9 7 5 6 8 8 8 7 8 7 7 6 4 2 3 5 6 8 10 11 12 14 15 17 19 22 25 27 28 28 29 29 30 31 32 33 32 31 31 30 30 31 30 30 30 29 29 28 28 28 28 27 27 27 27 28 29 30 29 28 27 27 27
2 3 4 4 4 3 5 10 5 4 4 1 3 3 4 5 11 15 16 21 23 24 30 28 23 21 12 8 13 14 14 13 12 13 11 9 7 8 9 8 6 4 4 5 6 5 2 2 1 2 3 5 7 8 10 12 13 15 17 19 22 24 26 27 28 28 28 29 31 32 32 31 31 31 31 31 32 32 31 31 31 31 31 31 30 29 28 28 28 29 30 31 31 30 29 29 28
4 2 4 4 5 4 3 7 5 4 5 3 5 4 6 7 10 16 20 24 26 25 25 25 23 13 13 18 18 18 17 16 16 15 12 9 7 6 6 6 4 2 1 1 2 2 4 4 3 3 4 5 6 6 8 9 12 14 16 17 19 21 22 24 25 26 26 27 29 30 31 31 31 31 31 32 32 33 33 33 32 32 32 33 32 32 30 30 30 31 32 32 32 31 30 30 30
4 4 4 4 4 4 5 5 4 2 1 4 5 6 8 8 11 19 25 27 25 20 17 20 14 10 21 22 23 23 22 22 20 16 12 10 7 6 6 6 6 6 6 5 3 3 4 4 3 3 3 4 5 5 5 7 9 11 14 15 17 18 19 21 22 23 24 25 27 28 29 30 30 30 31 31 32 33 33 33 33 33 34 35 35 35 34 34 33 33 33 33 33 33 32 31 31
7 7 5 5 5 5 6 6 5 4 4 5 7 8 7 8 9 14 26 27 19 15 14 9 7 21 24 24 26 26 26 26 21 18 16 14 12 12 11 11 10 9 9 8 6 6 6 6 5 4 4 3 3 4 3 4 5 7 9 12 13 15 16 18 19 20 21 23 24 26 27 28 29 29 29 30 31 32 32 33 33 34 35 37 38 38 37 36 35 34 34 34 35 34 34 33 33
7 6 6 6 5 5 5 6 6 3 3 5 7 6 6 8 8 13 27 25 16 16 8 11 21 24 24 26 27 27 29 28 25 25 24 24 24 25 25 24 24 23 22 21 20 19 18 18 17 16 13 8 6 5 4 3 3 3 4 6 8 10 12 14 16 17 19 20 22 23 25 26 27 27 28 29 29 30 31 31 32 33 34 37 38 39 39 38 37 36 36 36 36 36 36 36 35
7 6 6 5 5 6 6 6 7 3 2 5 4 6 6 8 9 17 24 17 13 10 7 21 23 24 25 27 27 28 30 29 30 32 33 34 35 35 36 36 36 37 36 35 34 32 29 28 27 25 21 16 12 8 6 4 2 2 2 2 3 5 8 9 11 12 14 15 17 19 21 23 24 25 26 27 28 28 29 30 31 31 33 35 37 39 39 39 39 38 39 38 37 37 38 38 38
6 5 3 4 4 3 5 5 4 2 1 5 5 6 7 9 11 17 18 9 11 13 19 21 23 25 24 25 28 29 31 32 34 35 36 37 37 38 38 38 39 38 38 37 35 34 33 32 30 28 26 23 18 13 9 7 5 3 1 0 2 3 4 6 7 8 10 11 12 14 16 18 20 22 23 24 26 26 27 28 29 30 32 34 36 38 40 41 40 40 40 40 39 39 39 40 41
5 5 4 5 4 1 4 5 4 3 2 3 4 5 6 7 11 12 8 12 19 25 29 26 26 27 26 26 28 30 32 34 35 36 36 36 36 36 36 37 36 35 36 35 34 34 33 32 30 29 27 26 23 19 15 12 9 6 4 1 1 3 4 6 6 6 7 8 8 9 11 13 15 17 19 21 23 24 25 26 27 28 30 32 35 38 40 41 41 41 41 41 41 41 41 42 42
4 5 5 5 5 4 5 4 5 5 4 1 2 5 4 6 9 6 9 18 18 21 26 27 25 26 28 29 30 31 32 33 35 35 35 35 35 34 34 34 34 34 35 34 34 33 32 31 29 28 27 26 25 23 20 17 14 13 11 8 6 2 1 3 4 4 4 5 5 6 6 8 9 11 12 15 17 19 21 22 24 26 29 31 34 37 39 40 41 41 41 41 42 43 43 43 44
4 4 7 8 7 6 4 2 5 4 5 3 3 4 5 5 6 5 5 11 10 13 18 19 19 22 26 28 28 29 30 32 33 33 33 33 32 32 32 31 32 33 33 32 31 31 30 30 28 27 26 26 25 24 23 21 19 18 17 17 16 13 10 7 5 4 5 6 7 6 7 8 9 9 9 9 11 12 14 16 19 22 26 29 32 35 37 39 40 40 40 41 42 42 43 45 46
3 4 5 5 5 3 1 3 3 1 2 4 2 2 5 4 5 7 5 10 7 9 11 13 16 19 22 24 25 27 30 31 31 31 31 30 30 29 30 30 30 30 30 29 28 29 28 28 28 27 26 25 24 24 24 23 22 22 21 21 22 21 18 15 11 7 7 8 9 8 8 9 10 10 10 9 8 9 10 11 14 17 21 24 28 32 35 37 38 39 39 40 41 42 43 46 48
3 5 4 6 5 4 3 2 1 3 3 5 1 4 4 4 6 6 7 12 6 7 7 9 14 17 20 21 22 25 28 29 31 30 29 29 28 28 28 27 27 27 26 26 26 27 26 26 25 25 24 24 24 23 23 23 23 23 23 23 23 24 23 20 17 13 9 8 9 9 9 9 10 12 12 12 11 10 9 9 10 12 15 19 23 28 32 34 36 37 38 39 40 42 43 46 47
6 6 5 6 5 5 3 3 2 3 1 5 5 4 3 5 5 2 9 9 5 6 6 6 11 15 18 20 20 22 24 27 29 29 28 27 26 25 25 24 24 24 23 24 24 24 23 23 22 22 22 22 22 22 22 22 21 21 22 22 22 23 22 21 20 18 15 13 10 10 10 10 11 11 12 13 13 12 11 10 10 10 12 14 17 22 26 30 33 36 37 39 40 41 43 44 46
4 4 4 4 2 2 1 3 3 1 1 4 6 4 3 5 5 1 6 6 6 6 5 6 11 14 17 19 20 22 23 24 25 26 26 24 23 22 21 20 21 21 21 21 21 20 20 20 19 20 21 21 21 20 19 19 19 19 19 20 20 21 20 19 18 18 17 16 14 11 10 10 11 11 11 12 13 13 13 13 12 11 10 11 13 16 20 24 29 33 35 37 39 40 41 43 46
4 5 4 6 5 3 3 2 4 3 2 6 8 8 6 4 4 2 2 4 9 10 7 7 10 14 16 16 19 20 21 23 23 24 23 22 20 18 16 17 18 18 18 17 18 18 17 17 17 18 19 18 18 17 16 16 16 17 18 19 19 19 19 18 18 18 18 17 15 14 11 10 9 9 10 10 10 12 13 13 13 13 12 11 11 13 16 19 23 27 32 35 37 39 40 42 44
6 5 4 4 5 4 5 4 3 2 4 7 7 7 7 5 4 2 4 1 9 11 10 10 10 13 15 16 18 19 20 22 22 21 19 17 16 15 14 15 15 15 15 16 16 16 15 15 14 14 14 14 14 14 14 14 15 16 17 18 18 19 18 18 18 18 18 18 17 16 14 12 10 8 8 9 9 11 12 13 13 14 14 13 12 13 14 16 18 22 26 31 35 37 39 40 43
5 4 4 2 3 2 2 2 0 2 6 6 3 3 4 5 3 3 5 4 6 8 11 14 15 16 16 16 17 18 19 19 19 17 16 14 14 14 13 13 14 14 14 15 15 14 14 13 12 12 12 12 12 12 13 14 15 16 17 17 18 18 18 18 18 18 17 17 16 16 15 15 14 12 11 11 11 12 13 13 13 13 14 14 14 14 14 15 16 18 21 25 30 34 37 39 42
4 4 4 4 2 1 2 3 2 3 5 5 2 2 1 4 1 4 5 5 9 15 18 19 19 19 18 17 17 18 18 17 16 14 13 12 12 12 11 11 12 12 12 12 12 12 12 11 10 11 11 11 11 11 11 12 14 16 17 17 17 17 17 18 18 17 16 16 15 15 15 15 15 15 14 14 13 14 14 14 14 13 13 13 15 16 15 15 16 18 19 22 25 28 32 36 40
5 5 5 5 4 4 3 4 3 3 4 5 3 1 2 3 1 3 4 8 14 20 20 20 20 18 17 17 17 16 16 14 13 12 11 10 10 10 9 9 9 9 10 10 11 11 9 9 9 10 11 11 10 10 10 11 13 14 15 16 17 17 18 18 17 17 17 16 16 15 15 15 15 15 14 14 14 15 15 15 15 15 13 13 14 16 17 17 17 18 19 21 22 24 27 31 35
3 3 4 2 4 5 2 4 5 3 3 4 2 2 1 3 2 3 6 9 13 16 17 18 17 16 16 16 15 15 14 12 10 9 9 9 9 8 8 8 8 9 10 11 11 10 9 9 10 11 12 11 10 10 11 12 12 13 13 14 14 15 16 17 17 18 18 18 17 16 16 16 16 15 15 15 15 15 16 16 16 16 16 15 16 17 17 17 17 18 19 20 22 22 24 27 30
1 3 3 4 4 5 2 3 1 2 2 4 3 2 1 2 1 2 5 6 7 9 11 13 14 15 15 15 14 13 11 10 8 7 7 7 7 6 6 7 8 9 9 10 10 10 10 11 12 12 12 11 11 12 12 13 13 13 12 12 12 13 13 14 15 16 17 17 18 18 18 17 17 17 16 17 17 16 16 17 16 16 16 17 17 18 18 17 18 19 20 21 21 21 23 25 27
3 2 4 3 1 3 3 0 2 1 4 4 2 4 3 2 2 1 3 4 5 5 6 10 11 13 13 13 12 10 9 8 6 5 5 5 5 5 5 6 7 8 9 10 11 11 12 13 13 14 13 14 14 14 14 14 14 13 13 12 12 12 13 13 13 13 14 15 16 18 19 20 20 20 19 19 18 18 17 17 17 17 16 16 16 17 18 19 19 19 20 21 21 21 23 24 25
4 3 2 1 1 2 1 1 2 3 5 4 5 6 5 4 4 5 7 8 8 6 6 7 8 11 13 12 11 9 7 5 4 4 4 5 5 5 6 6 7 8 9 10 11 12 13 14 15 15 16 16 16 16 17 16 16 16 16 15 15 15 14 13 12 13 13 14 15 16 17 19 21 21 22 22 22 21 20 19 19 18 18 17 17 17 18 19 19 20 21 21 22 22 24 25 24
3 2 2 1 3 3 2 2 3 3 4 4 5 6 4 4 5 10 12 11 10 9 6 6 9 14 14 13 12 10 8 7 5 4 4 5 5 5 6 7 7 8 9 10 10 11 13 14 14 15 16 16 17 18 18 18 18 18 18 18 18 17 17 16 15 15 15 15 15 16 16 17 18 20 22 23 24 24 24 23 22 21 20 19 19 18 18 19 20 21 22 22 22 22 24 26 25
2 1 1 1 1 1 2 2 3 3 4 4 5 6 5 3 3 9 13 11 10 10 8 7 13 17 15 14 13 11 9 8 6 6 6 6 6 5 6 6 7 8 9 9 10 11 12 12 14 15 15 16 17 18 19 20 20 20 21 21 21 20 20 20 19 19 19 19 18 18 18 18 18 19 20 22 23 24 25 25 25 24 23 22 21 20 20 20 20 21 21 22 23 23 24 25 26
4 3 3 2 2 1 2 4 2 2 3 3 4 6 5 3 1 5 10 9 9 12 12 11 15 19 17 15 13 11 9 8 7 8 7 6 6 5 6 6 7 8 9 9 10 11 11 12 13 14 15 17 18 19 20 21 22 23 23 24 24 24 24 24 24 24 24 24 24 24 23 23 23 22 23 23 24 25 26 26 26 26 26 25 25 24 23 22 22 22 22 22 23 24 26 26 26
Wind_Direction
315 320 322 312 326 356 15 14 16 335 60 343 285 178 267 268 122 63 66 64 68 64 24 21 261 265 272 271 239 248 246 219 197 167 195 201 134 290 3 251 266 290 271 243 216 214 215 213 212 213 213 213 213 212 210 209 208 203 197 195 192 191 192 192 192 189 192 192 182 173 161 161 168 164 152 151 151 149 151 152 147 148 156 160 167 174 180 189 189 193 202 197 192 186 187 188 178
319 322 326 317 356 13 346 15 60 346 43 11 300 164 246 350 56 92 125 132 159 209 330 348 317 269 253 267 270 275 267 248 228 222 180 166 126 86 3 292 271 232 250 258 234 221 219 217 215 216 215 215 216 215 213 212 211 206 203 200 198 198 198 198 199 198 199 193 181 176 172 174 176 171 165 163 158 150 149 150 149 149 158 168 173 182 193 199 199 208 228 230 220 217 225 233 230
324 327 330 326 28 4 331 22 89 74 59 27 287 275 14 49 72 139 143 140 152 196 351 349 324 302 259 257 258 220 247 279 208 218 166 155 161 354 303 280 269 247 237 254 248 232 224 221 219 219 218 218 219 220 217 215 214 210 208 206 204 203 204 204 204 204 203 194 183 182 182 181 180 180 181 181 176 166 164 165 161 160 165 175 180 189 200 206 206 215 236 234 225 227 233 239 242
333 344 346 355 34 10 3 49 136 120 66 243 248 307 21 101 114 144 139 132 156 234 358 81 299 269 243 267 272 255 258 262 149 199 187 335 326 307 290 265 261 253 230 243 249 244 232 224 223 221 221 222 223 224 221 218 217 213 211 211 208 207 208 207 207 208 207 201 187 184 188 187 188 194 197 199 200 186 182 184 180 182 185 194 200 208 217 226 233 233 241 242 235 232 237 244 249
339 57 31 22 35 1 58 56 94 93 250 206 131 288 235 119 105 95 38 31 181 192 3 135 264 261 264 268 265 253 234 212 194 268 300 317 324 306 295 270 258 256 235 235 245 251 241 229 226 224 224 224 226 228 226 223 220 216 214 214 212 210 210 210 210 210 209 203 189 188 193 195 198 206 211 215 219 208 204 207 208 214 224 231 234 240 244 248 252 251 248 248 247 247 251 255 258
43 99 68 32 24 315 75 53 305 299 244 176 140 258 184 114 101 40 22 70 165 172 61 152 222 293 281 270 253 250 234 236 260 274 294 309 313 302 297 284 268 263 241 227 237 248 246 236 229 227 227 227 228 230 231 228 224 220 217 216 215 212 212 213 215 214 210 202 191 193 198 201 205 213 222 226 227 225 224 227 235 241 247 255 261 264 266 265 263 261 253 247 251 252 255 259 261
95 80 41 21 1 348 95 173 245 244 251 176 159 215 150 98 81 38 13 74 153 202 141 152 202 282 286 284 256 259 250 244 258 277 296 305 305 307 304 298 281 271 254 228 228 237 245 241 233 231 230 229 230 232 233 231 228 224 220 219 218 216 216 217 219 216 211 203 195 197 200 205 210 216 227 232 232 238 243 245 252 256 255 257 260 265 270 273 270 265 257 251 253 252 254 257 260
69 46 32 58 33 20 87 260 250 207 251 223 164 142 107 86 74 46 342 356 257 219 169 185 200 59 279 282 270 278 258 236 239 267 291 290 308 322 316 312 294 280 267 241 226 227 238 241 237 234 233 232 233 234 234 233 231 227 224 223 221 220 221 221 221 219 212 206 200 201 202 207 214 220 230 235 237 243 252 258 262 262 260 257 256 257 262 267 268 266 261 256 253 252 254 256 260
63 32 38 68 39 5 350 302 283 244 268 285 122 98 91 82 76 81 310 311 304 236 200 207 195 172 269 289 284 289 273 235 230 260 284 278 298 329 320 313 300 291 271 255 240 227 229 238 239 237 235 234 235 237 236 235 233 229 225 224 225 224 226 226 224 222 216 209 205 205 208 212 218 226 236 241 243 252 261 268 272 269 262 257 255 255 256 258 261 263 260 256 254 253 254 256 259
60 31 15 69 56 3 329 300 288 287 288 298 63 89 93 82 73 65 310 295 304 282 212 207 207 227 264 292 284 293 280 235 225 253 276 271 286 324 327 318 300 296 275 261 256 239 229 234 240 239 237 236 237 239 239 238 236 232 228 225 227 227 229 230 229 226 220 216 212 210 213 218 224 233 241 244 250 261 269 276 279 272 263 260 258 254 253 250 252 256 254 249 250 250 249 251 251
44 348 339 58 38 348 281 285 291 286 292 310 55 76 94 85 69 7 322 292 299 318 200 193 216 264 269 267 272 292 275 238 230 246 271 266 268 312 329 325 303 294 282 268 264 254 239 233 238 242 240 238 239 240 241 241 240 236 233 229 228 229 230 232 232 231 227 224 221 217 220 224 231 239 246 251 260 268 277 282 277 267 260 259 257 254 253 250 250 251 248 244 242 240 238 238 235
19 339 46 66 82 233 235 286 294 295 322 352 23 63 90 79 83 306 316 299 313 338 295 207 231 309 275 256 276 289 267 244 244 247 260 259 254 293 321 322 308 294 284 273 268 261 250 241 238 241 243 241 240 242 242 243 243 240 237 235 232 231 230 230 233 234 232 231 229 228 230 234 239 247 254 261 267 273 281 281 267 260 256 253 252 252 253 252 249 246 242 239 232 227 224 223 220
359 12 71 111 222 246 282 294 293 317 342 337 240 120 89 53 122 243 308 308 316 335 317 183 266 308 270 276 283 281 268 255 252 247 253 250 251 279 306 312 305 294 284 278 273 266 258 250 243 240 243 244 243 243 244 244 243 243 242 239 236 235 232 230 232 234 233 234 235 236 238 242 248 254 260 265 270 274 278 273 256 253 253 248 247 246 247 245 240 238 235 228 219 214 216 217 218
356 5 79 205 300 321 283 287 294 326 298 268 217 160 113 349 285 264 282 299 298 294 259 252 293 295 273 277 276 274 278 275 258 252 255 245 252 279 294 299 297 289 283 281 276 270 264 257 249 244 242 243 245 245 245 245 244 244 244 243 239 238 236 233 232 234 234 235 238 239 241 246 252 257 262 266 270 272 273 267 255 250 248 245 242 239 239 237 231 229 224 216 210 210 216 218 222
353 357 77 120 335 327 256 228 232 164 243 252 192 190 143 4 323 264 229 251 279 270 272 287 288 268 263 261 258 270 293 296 270 261 263 255 262 280 288 290 289 283 278 279 277 273 266 260 254 247 244 241 242 245 246 246 245 244 245 245 242 240 239 238 236 235 235 236 239 240 242 246 252 257 261 265 268 271 271 266 257 250 246 243 241 238 235 232 225 221 216 211 209 213 219 222 226
357 2 64 62 296 305 248 220 193 105 263 255 190 216 27 6 338 277 224 235 267 271 272 274 264 260 267 268 281 290 289 285 272 267 268 268 274 281 287 289 285 280 276 273 273 274 268 261 256 251 247 242 240 241 243 245 246 246 245 245 244 242 241 241 240 236 235 236 239 240 243 246 251 256 260 264 268 271 269 261 253 249 246 243 240 237 233 229 223 219 217 213 212 217 222 226 229
65 63 71 357 237 227 241 228 18 121 260 279 255 248 126 343 343 325 266 250 263 276 279 277 271 267 270 279 295 298 287 280 273 270 272 275 281 284 287 290 288 284 280 274 270 270 267 261 256 253 250 246 242 240 240 242 244 246 245 245 243 242 241 242 241 237 236 237 239 240 244 247 251 256 260 265 267 269 264 254 248 247 246 243 239 235 232 229 225 221 219 215 216 220 223 228 230
134 93 115 230 223 213 212 205 301 274 245 293 309 330 26 356 342 332 300 259 262 272 278 281 280 273 274 286 297 292 283 278 274 273 274 273 276 283 289 291 290 287 284 279 269 264 264 263 258 252 249 247 246 243 241 241 242 244 245 245 244 242 241 241 240 238 238 238 238 240 244 247 251 256 261 264 267 266 262 252 247 247 246 244 240 235 232 229 227 224 221 218 218 222 225 228 230
177 139 145 222 211 228 266 293 319 333 298 300 315 337 357 326 323 327 304 267 271 270 274 279 281 281 284 292 295 292 290 281 277 277 275 274 273 278 286 289 290 289 288 285 275 264 259 259 257 252 248 246 246 245 244 242 242 242 243 244 244 243 242 241 239 238 237 237 239 241 243 247 251 255 260 263 264 263 260 253 246 245 245 245 241 236 232 230 229 228 224 221 220 223 225 228 231
202 181 171 241 226 259 285 297 314 319 314 313 320 321 318 308 313 316 292 280 280 261 267 274 279 286 293 297 293 295 302 293 282 279 277 277 274 275 282 288 291 292 293 289 279 265 256 252 253 254 251 247 246 246 245 244 243 242 241 242 243 244 243 242 240 238 237 238 239 241 243 246 249 253 257 260 260 257 256 252 246 243 244 244 242 238 235 232 231 231 228 226 223 224 226 229 231
193 176 192 235 230 265 276 287 304 309 315 314 308 314 311 306 307 299 288 293 281 255 263 270 278 287 293 294 292 292 297 294 285 282 280 278 276 277 283 290 294 296 295 289 281 272 264 257 253 254 253 250 247 246 246 246 246 245 242 241 242 242 243 244 242 240 239 240 241 241 243 245 247 250 253 256 255 253 252 250 245 242 243 244 242 240 239 236 234 233 230 230 227 225 227 228 230
197 204 217 228 235 258 270 285 298 300 304 303 304 309 301 302 297 286 281 273 269 271 276 278 281 287 290 290 292 291 291 290 288 287 284 281 280 281 285 291 294 296 297 294 294 289 279 270 261 254 253 253 250 248 248 249 249 247 246 244 242 242 242 244 244 243 242 241 241 241 242 243 245 247 250 252 252 251 249 247 244 241 242 243 242 241 241 240 237 234 231 233 231 226 228 230 232
219 247 231 234 241 247 272 287 296 297 292 284 291 293 291 298 293 284 272 263 275 284 286 284 284 286 288 287 287 288 287 285 286 288 288 287 284 285 289 291 292 293 294 298 302 299 289 281 274 261 254 254 253 252 250 249 249 249 249 249 247 246 244 244 245 247 246 245 242 241 241 242 244 245 247 250 250 250 248 245 243 240 241 242 241 239 241 241 238 233 231 234 234 230 230 232 235
216 257 245 241 248 256 278 290 295 298 288 277 289 292 286 280 283 287 275 275 285 292 293 289 287 288 288 286 285 286 285 285 288 292 293 291 289 290 291 291 292 291 290 296 301 298 293 289 284 273 263 257 255 255 253 251 251 251 250 250 251 251 249 248 248 249 249 249 247 244 242 242 243 245 246 248 249 249 248 245 242 240 240 241 240 238 239 240 237 234 233 235 236 234 233 233 237
218 247 255 252 271 281 290 295 293 294 290 287 291 284 275 268 273 280 277 283 293 300 301 298 294 291 285 285 288 289 288 290 294 298 298 295 294 289 286 287 289 289 292 300 301 296 295 291 284 279 275 268 261 256 255 254 253 253 252 251 253 254 253 254 253 251 250 250 251 249 247 244 243 244 245 247 248 249 248 246 243 241 240 241 240 238 238 239 237 234 233 236 236 235 234 235 238
271 296 306 303 301 297 297 299 293 290 286 284 281 274 275 274 278 277 275 285 301 303 301 299 296 290 282 283 289 293 292 293 299 304 303 298 295 287 281 283 285 289 297 301 299 297 298 290 283 281 281 278 268 259 257 256 255 255 254 254 254 256 256 258 257 255 255 253 252 252 251 250 248 246 246 246 247 248 248 246 244 242 240 241 241 239 238 239 237 234 234 236 237 235 234 236 240
314 329 325 308 303 302 298 295 289 286 282 275 259 259 272 272 273 267 276 292 303 298 298 298 293 287 287 289 291 293 294 298 304 307 305 298 296 289 281 280 284 292 298 298 299 300 298 290 285 284 283 280 274 265 260 257 256 257 257 257 256 257 258 258 258 258 259 258 255 254 253 253 254 251 249 247 247 248 249 247 245 243 241 242 242 240 238 239 238 235 235 237 238 235 234 236 240
315 330 331 308 308 307 296 288 283 280 279 268 241 238 271 272 206 250 273 296 301 294 297 298 292 289 292 296 299 303 306 310 311 312 312 303 297 285 276 275 276 281 288 293 299 297 294 291 287 285 283 282 279 274 268 262 259 258 257 257 257 258 258 257 258 259 260 260 259 259 258 258 258 256 253 251 249 249 250 251 248 244 243 243 243 241 238 239 238 235 234 235 236 233 232 235 238
319 320 327 303 318 311 285 276 274 269 263 261 223 223 279 260 233 251 271 295 299 296 295 292 291 295 300 310 319 326 325 321 321 332 349 318 268 244 262 273 267 260 263 272 281 287 290 290 288 286 283 281 280 280 277 270 264 260 257 256 257 257 257 257 258 259 260 261 262 263 265 265 264 262 258 255 253 252 254 254 252 247 245 245 244 242 239 238 238 235 234 235 235 232 231 234 236
319 311 169 296 335 310 275 272 272 268 257 233 180 160 275 243 250 259 281 294 298 304 296 291 294 300 310 321 333 2 21 23 41 61 89 117 154 205 243 264 270 265 260 257 263 279 288 289 288 286 282 281 282 281 278 274 268 263 259 257 256 255 255 256 257 258 260 261 261 263 265 266 267 266 263 260 259 257 257 256 255 252 249 248 246 244 241 239 239 237 235 236 237 234 233 235 236
307 308 108 273 291 279 278 282 277 278 243 191 168 195 260 247 263 270 291 294 294 299 295 295 296 302 315 323 350 68 74 77 87 91 90 75 80 288 300 293 282 274 272 270 268 272 277 289 293 287 285 283 282 281 279 277 272 266 262 259 256 255 255 255 255 256 257 258 259 260 262 264 266 267 267 266 264 262 261 260 260 258 253 251 250 248 245 242 240 239 236 237 238 236 235 236 237
283 281 304 271 205 262 293 294 270 231 213 171 162 224 259 256 267 272 291 291 291 295 292 292 299 313 323 336 76 96 82 84 88 79 66 42 20 347 336 325 308 286 277 273 268 268 261 288 300 291 290 284 281 280 278 275 271 266 262 260 257 256 255 254 254 254 255 256 257 258 260 263 264 266 267 268 267 265 264 263 264 263 257 253 252 252 249 246 242 240 238 238 238 237 236 237 237
304 202 248 255 228 257 300 304 293 158 128 182 208 236 261 271 264 265 280 284 287 291 289 293 311 329 353 74 99 92 82 82 71 61 52 34 18 359 352 347 341 317 285 267 259 255 207 152 193 262 267 270 272 271 271 270 268 265 261 260 258 256 255 254 255 255 255 255 255 257 259 262 264 265 267 268 268 267 267 266 266 265 260 255 254 254 253 251 247 243 240 239 239 238 237 238 238
294 238 229 241 237 241 265 303 321 111 123 234 251 234 246 268 271 268 273 279 282 283 286 297 314 347 80 95 87 80 74 68 58 54 50 44 36 23 22 22 30 62 85 204 241 220 170 146 150 201 227 238 245 245 252 257 259 261 259 259 258 257 256 255 255 255 255 255 256 258 260 262 263 264 266 267 267 267 267 267 266 264 262 258 257 256 254 253 251 246 242 240 240 239 238 239 239
240 242 239 261 252 242 250 273 295 317 284 270 275 264 257 269 277 275 275 276 274 275 285 299 314 76 96 88 80 76 71 67 60 58 60 59 60 55 60 62 67 85 96 107 121 138 146 142 160 197 206 208 214 213 221 239 250 255 257 257 256 255 255 254 254 255 256 257 258 259 260 261 262 262 264 265 266 267 267 266 265 264 262 260 259 257 254 252 251 250 246 242 241 240 240 240 240
223 236 238 256 256 257 257 254 268 294 304 287 274 271 272 280 278 279 283 283 280 287 300 311 87 101 94 84 81 76 72 70 67 71 73 71 73 72 71 67 68 75 82 90 91 87 80 74 77 75 79 107 137 142 160 199 229 247 254 258 258 258 257 256 256 256 257 258 259 260 260 261 261 262 263 263 265 266 266 266 265 264 262 261 260 258 255 253 253 254 252 247 242 240 239 238 237
232 249 254 255 249 263 264 260 275 306 314 264 260 285 295 291 291 287 288 292 301 306 326 93 103 98 90 85 82 78 77 75 77 81 80 80 80 78 78 76 75 76 75 74 71 68 62 59 60 59 59 60 70 84 100 134 167 191 221 244 254 261 263 262 263 263 263 263 263 263 264 264 264 263 263 264 264 265 266 266 265 264 262 261 261 260 258 256 256 256 255 251 245 242 240 238 237
240 242 249 259 245 250 255 260 277 315 333 260 289 338 308 293 294 285 287 301 327 326 94 108 103 94 90 88 84 82 82 82 84 84 82 84 83 82 81 79 77 74 72 70 68 65 62 60 58 57 56 56 57 56 52 58 78 119 161 213 242 259 264 266 268 268 269 269 269 269 269 269 269 268 268 267 267 267 266 266 266 265 263 262 262 261 259 256 255 255 254 251 247 243 242 242 240
254 256 252 264 256 272 287 285 299 9 11 269 312 327 290 287 275 277 293 331 30 65 104 107 100 96 90 88 88 87 86 84 84 83 83 84 83 83 81 78 76 73 71 68 65 63 60 58 57 55 55 54 55 53 48 43 35 39 67 243 265 277 281 285 288 286 286 283 280 277 275 275 275 274 274 273 272 271 271 270 269 267 264 263 261 260 259 257 255 254 253 252 249 245 242 241 241
255 255 261 268 269 293 285 295 326 343 271 250 296 300 284 283 268 284 348 65 76 82 94 92 91 95 92 92 92 90 89 86 85 84 83 83 81 80 77 74 73 70 67 64 62 60 58 57 56 55 54 52 53 51 49 48 44 46 56 79 238 252 261 275 285 291 296 297 295 289 283 279 278 278 277 277 277 276 275 274 272 269 265 264 262 260 260 259 257 255 254 253 250 246 242 241 241
261 226 219 246 260 232 228 278 333 330 322 334 4 332 295 261 261 288 61 84 82 81 87 85 87 93 95 96 93 91 91 89 89 87 85 83 81 78 75 72 68 64 61 58 56 56 55 55 55 55 55 53 52 50 48 47 47 49 52 56 59 56 281 273 268 272 290 305 316 318 309 300 294 290 284 280 280 279 278 276 274 270 267 265 263 262 261 261 260 258 257 255 252 249 247 245 243
292 237 214 222 239 240 239 331 15 16 335 314 47 16 293 271 270 263 105 89 71 72 80 84 88 92 94 94 91 93 92 91 90 89 88 86 83 80 76 71 67 63 61 58 56 54 53 54 53 54 54 54 54 53 52 50 49 49 50 52 53 52 45 29 4 330 314 312 321 332 332 326 320 313 302 290 285 283 282 280 277 272 269 266 265 264 263 262 261 260 258 257 255 254 251 247 245
280 249 207 191 193 194 153 54 46 79 250 277 69 104 269 287 279 260 120 93 78 73 73 82 88 88 91 92 94 97 96 95 93 89 88 85 82 77 72 68 64 62 61 59 57 56 55 53 53 53 54 56 57 57 57 57 56 55 54 54 54 54 51 43 31 9 335 320 323 330 331 328 327 327 325 318 307 297 290 284 280 276 272 269 267 266 265 264 264 263 262 260 258 257 253 249 247
237 241 139 113 121 138 155 128 175 225 246 309 301 176 251 277 255 248 112 99 92 87 79 82 87 88 90 91 93 96 97 99 97 93 88 84 81 77 73 70 66 63 60 57 55 56 56 54 54 54 56 59 60 60 59 59 59 58 57 57 56 56 55 51 47 39 24 0 345 341 340 338 338 338 339 338 333 326 315 302 289 280 274 271 268 267 266 266 266 265 263 261 260 258 254 252 251
237 221 127 111 132 150 174 160 210 255 330 306 262 185 231 270 262 203 117 119 128 124 117 105 99 97 96 95 95 95 96 96 96 95 90 85 81 76 74 71 67 63 58 54 54 55 55 56 57 58 59 61 60 60 59 58 57 56 55 54 55 56 55 53 51 47 43 35 22 6 356 350 348 344 341 339 337 336 331 324 312 296 283 275 271 269 268 267 266 266 264 262 261 259 257 255 253
231 174 102 65 89 134 157 144 144 347 329 249 236 187 193 268 290 97 122 144 160 146 131 120 111 105 103 103 104 102 100 96 94 94 91 87 81 75 72 68 64 61 56 54 53 52 53 55 55 56 57 58 58 57 56 55 53 49 47 46 46 48 48 48 47 45 43 40 36 29 15 3 356 348 341 337 335 334 330 326 322 313 303 288 278 274 270 267 266 265 265 265 263 261 260 258 256
119 89 57 23 7 17 36 99 103 61 287 245 226 198 185 268 293 186 174 190 163 148 138 131 116 110 109 108 108 106 104 102 98 95 92 87 81 75 69 65 63 61 57 55 54 53 53 52 50 50 52 53 52 51 49 45 43 40 39 37 37 38 39 39 38 37 36 33 31 28 23 14 1 347 335 331 330 327 323 321 319 316 313 304 291 282 276 272 269 267 266 266 265 263 261 260 258
99 77 69 31 338 6 30 3 46 98 251 260 241 200 180 223 267 278 311 238 149 144 148 146 130 121 118 115 114 110 107 106 103 98 92 86 80 74 68 64 63 61 58 58 58 59 59 59 59 57 56 55 51 47 41 37 35 35 35 33 33 34 33 33 34 33 30 27 24 21 18 14 7 353 335 324 319 316 314 313 312 311 312 309 301 291 281 275 272 270 268 266 265 264 262 261 260
87 90 96 81 318 359 16 308 43 201 245 258 238 148 171 224 257 3 356 25 105 119 130 136 134 130 125 121 119 114 112 109 103 96 88 81 76 70 66 62 61 59 58 60 61 62 62 65 68 68 67 61 51 44 36 31 31 32 33 32 31 30 28 29 30 30 27 24 20 16 14 12 10 4 352 336 322 313 310 309 308 306 306 308 305 297 286 274 268 266 267 267 267 265 264 262 260
139 142 143 152 164 149 259 259 258 264 266 263 245 86 236 251 333 33 12 34 93 110 121 130 132 132 129 127 124 118 115 109 99 92 85 79 74 69 65 61 58 57 58 60 60 60 62 65 68 70 69 63 54 47 37 31 28 28 28 28 27 26 25 25 25 24 23 19 15 12 10 9 8 5 360 351 338 327 317 313 312 309 305 305 304 300 293 281 269 263 262 264 265 266 266 264 262
183 166 145 150 162 172 209 221 217 248 275 282 283 299 222 217 10 37 52 68 94 110 122 128 130 132 132 130 127 122 116 110 101 93 87 83 78 73 69 65 63 66 67 67 67 71 77 79 78 73 69 63 56 49 43 37 33 29 25 22 21 20 19 20 21 19 17 14 10 6 3 2 2 1 359 355 348 340 331 324 322 319 314 306 300 297 294 287 276 266 262 261 262 263 263 264 263
224 148 123 174 191 168 192 218 188 180 278 288 261 245 194 139 82 65 81 79 91 108 121 125 128 134 136 133 131 127 121 115 107 99 92 86 80 75 71 71 74 75 75 76 79 84 85 78 70 63 62 59 52 46 40 36 33 28 24 20 16 13 12 11 12 10 8 6 3 359 357 357 355 353 352 351 348 345 341 336 333 330 325 318 309 301 296 290 281 272 267 264 262 261 261 262 262
222 114 172 226 188 136 130 270 212 128 250 258 202 204 35 86 106 96 92 87 99 115 126 131 136 140 141 140 138 136 131 125 118 110 100 89 80 75 72 74 74 71 72 77 79 77 71 64 58 55 53 48 43 38 33 31 29 25 22 20 15 11 8 5 3 359 355 354 351 349 349 348 347 346 346 345 344 342 341 339 338 335 332 328 323 316 308 300 289 280 273 269 266 264 262 262 261
127 166 220 238 30 75 97 250 304 285 251 262 239 225 217 185 210 161 134 144 150 161 152 140 142 148 151 151 149 146 140 136 132 119 111 104 99 95 90 83 76 72 70 70 68 62 56 52 47 44 39 35 33 30 29 27 24 22 19 16 14 11 8 2 356 350 344 341 338 337 339 339 341 343 343 342 339 337 336 335 335 335 333 331 329 326 320 313 304 294 285 277 272 269 266 264 263
125 176 233 108 77 310 15 141 216 239 245 269 275 253 229 205 194 175 181 183 175 178 167 152 160 168 167 162 159 158 152 157 159 133 124 124 124 118 106 94 83 76 67 60 57 50 44 40 37 33 29 27 24 22 21 19 17 16 13 12 10 7 5 359 352 346 340 336 332 331 331 332 334 336 337 338 338 337 336 334 333 332 332 332 330 328 325 321 316 309 302 293 283 276 271 268 266
55 61 343 51 155 187 214 195 180 205 239 257 271 267 254 236 195 170 181 186 174 172 171 176 187 184 178 172 170 174 178 184 183 161 154 143 134 123 107 95 82 71 60 51 46 38 34 31 28 26 22 19 15 13 11 8 7 6 4 4 2 1 0 356 352 349 344 341 338 334 332 329 329 329 329 331 334 335 335 334 334 333 332 331 330 329 326 322 320 318 314 308 299 288 278 274 270
77 75 279 272 207 191 260 245 164 162 217 236 254 259 253 261 202 168 178 178 167 170 171 186 196 190 185 183 180 184 190 192 187 176 169 158 141 120 97 79 64 53 44 38 31 25 23 19 15 14 10 7 4 2 0 358 356 354 352 351 350 349 348 346 345 343 341 340 338 337 335 332 331 329 327 327 328 329 330 331 332 332 333 332 331 331 329 325 322 319 317 315 311 304 294 285 278
134 163 193 183 177 169 266 261 210 153 208 211 234 261 266 278 276 161 165 162 162 172 172 184 194 188 185 187 188 191 197 196 189 177 166 153 133 104 79 61 47 38 28 23 19 14 12 9 6 4 1 357 355 353 352 350 348 347 345 344 343 342 340 338 337 335 334 333 332 331 331 330 329 328 327 327 325 324 324 325 326 328 330 331 330 330 329 327 325 322 318 315 313 310 306 300 293